[[{"header":{"parameterUnit":"m.s-1","parameterCategory":1,"la1":30.2991,"la2":30.254,"lo1":-89.0895,"lo2":-89.0444,"dx":0.0017,"dy":0.0017,"nx":28,"ny":28,"refTime":"2022-12-16T15:00:00:Z","depth":0,"parameterNumber":2,"parameterNumberName":"U-component_of_WINDS"},"data":[0,0,0,0,0,0,0,0,0,0,0,0,0,0,0,0,0,0,0,0,0,0,0,0,0,0,0,0,0,0,0,0,0,0,0,0,0,0,0,0,0,0,0,0,0,0,0,0,0,0,0,0,0,0,0,0,0,0,-0.4018,-0.4018,0,-0.3999,-0.3999,-0.3998,-0.3943,-0.3942,-0.3941,-0.394,-0.3922,-0.3923,-0.3923,0,0,0,0,0,0,0,0,0,0,0,0,0,-0.401,-0.401,-0.4018,-0.4018,-0.4018,-0.3999,-0.3999,-0.3998,-0.3944,-0.3942,-0.3941,-0.3939,-0.3922,-0.3922,-0.3923,0,0,0,0,0,0,0,0,0,0,0,0,0,-0.4005,-0.4011,-0.4018,-0.3988,-0.3985,-0.3999,-0.3999,-0.3998,-0.3944,-0.3942,-0.394,-0.3939,-0.3921,-0.3922,-0.3923,-0.3965,0,0,-0.3926,-0.3927,0,0,0,0,0,0,0,0,-0.4005,-0.4005,-0.3993,-0.399,-0.3987,-0.3972,-0.3989,-0.3987,-0.3944,-0.396,-0.394,-0.3938,-0.394,-0.3939,-0.394,-0.3965,-0.3964,-0.3926,-0.3927,-0.3927,-0.3928,0,0,0,0,0,0,0,-0.4005,-0.4005,-0.4011,-0.3993,-0.3989,-0.3976,-0.3973,-0.3988,-0.396,-0.3958,-0.3954,-0.3952,-0.3938,-0.3939,-0.3939,-0.3963,-0.3926,-0.3927,-0.3928,-0.3928,-0.4022,-0.4024,0,0,0,0,0,0,-0.401,-0.4006,-0.4011,-0.401,-0.3992,-0.3978,-0.3975,-0.3978,-0.396,-0.3955,-0.3954,-0.395,-0.3938,-0.3938,-0.3938,-0.3987,-0.3927,-0.3928,-0.3929,-0.402,-0.4023,-0.4025,0,0,0,0,0,0,-0.401,-0.4011,-0.4012,-0.4007,-0.4006,-0.398,-0.3985,-0.3979,-0.398,-0.3957,-0.3952,-0.396,-0.3937,-0.3937,-0.3959,-0.3985,-0.3929,-0.393,-0.4018,-0.4021,-0.4024,-0.4084,0,0,0,0,0,0,-0.401,-0.4011,-0.4026,-0.4008,-0.4007,-0.4033,-0.3986,-0.398,-0.3981,-0.3976,-0.3961,-0.3957,-0.3935,-0.3958,-0.396,-0.3985,-0.393,-0.4016,-0.4019,-0.4023,-0.4079,-0.4088,-0.4096,0,0,0,0,0,-0.401,-0.4045,-0.4028,-0.4028,-0.4025,-0.4035,-0.4034,-0.4008,-0.3984,-0.3999,-0.3984,-0.3957,-0.3982,-0.3961,-0.3962,-0.3989,-0.4014,-0.4018,-0.4022,-0.4076,-0.4087,-0.4096,0,0,0,0,0,0,-0.4068,-0.4042,-0.4022,-0.4052,-0.4046,-0.4025,-0.4044,-0.402,-0.4022,-0.4017,-0.3985,-0.3982,-0.4009,-0.4001,-0.3978,-0.4029,-0.3993,-0.3998,-0.4033,-0.4043,-0.4051,-0.4053,-0.3931,0,0,0,0,0,-0.4084,-0.4093,-0.407,-0.4098,-0.4096,-0.4071,-0.4074,-0.4054,-0.4047,-0.4044,-0.4031,-0.4026,-0.4032,-0.4037,-0.4041,-0.4077,-0.4074,-0.4096,-0.4105,-0.4112,-0.4117,-0.4136,-0.4146,-0.4039,-0.4039,-0.4039,0,0,-0.4118,-0.4104,-0.4112,-0.411,-0.4103,-0.4114,-0.4069,-0.4082,-0.4091,-0.4046,-0.4067,-0.4057,-0.4049,-0.4078,-0.409,-0.4072,-0.4145,-0.4117,-0.4123,-0.4124,-0.4141,-0.4152,-0.4161,-0.4042,-0.4041,-0.4041,0,0,-0.4185,-0.4176,-0.4198,-0.4192,-0.4182,-0.4164,-0.417,-0.4153,-0.4144,-0.4164,-0.4131,-0.414,-0.4152,-0.4148,-0.4147,-0.4212,-0.4188,-0.4214,-0.4259,-0.4278,-0.4286,-0.4293,-0.4318,-0.4327,-0.4219,-0.4219,-0.4219,0,-0.4229,-0.4243,-0.4213,-0.4229,-0.4229,-0.4189,-0.4212,-0.4207,-0.42,-0.4201,-0.418,-0.4194,-0.4185,-0.4214,-0.423,-0.423,-0.4236,-0.4217,-0.4287,-0.4294,-0.4301,-0.4323,-0.4333,-0.4223,-0.4222,-0.4222,-0.4222,0,-0.4298,-0.4309,-0.4328,-0.4321,-0.4323,-0.4343,-0.4316,-0.4322,-0.4302,-0.4287,-0.4308,-0.4296,-0.4298,-0.4303,-0.4284,-0.4329,-0.4318,-0.4293,-0.4257,-0.4315,-0.4336,-0.4344,-0.4228,-0.4226,-0.4225,-0.4225,0,0,-0.4403,-0.4378,-0.4386,-0.4382,-0.4367,-0.4375,-0.4393,-0.4394,-0.44,-0.4395,-0.441,-0.4421,-0.4397,-0.4396,-0.4376,-0.4393,-0.4446,-0.4366,-0.4365,-0.4382,-0.4496,-0.4516,-0.4527,-0.4429,-0.4431,-0.4432,-0.4497,0,-0.4467,-0.4495,-0.4469,-0.4503,-0.4513,-0.4474,-0.449,-0.4483,-0.4469,-0.4476,-0.4461,-0.447,-0.4437,-0.4437,-0.4451,-0.4437,-0.4469,-0.4432,-0.4444,-0.4445,-0.4449,-0.4537,-0.4558,-0.462,-0.4505,-0.4506,-0.4507,0,-0.4546,-0.4545,-0.458,-0.4563,-0.4566,-0.458,-0.4579,-0.4586,-0.4577,-0.4566,-0.4565,-0.454,-0.4557,-0.4521,-0.4545,-0.452,-0.4523,-0.4517,-0.4519,-0.452,-0.4481,-0.4542,-0.4639,-0.4649,-0.452,-0.4519,-0.4518,0,-0.4621,-0.4627,-0.4649,-0.4647,-0.4627,-0.4638,-0.4631,-0.462,-0.4623,-0.4622,-0.4623,-0.4624,-0.4626,-0.4627,-0.4604,-0.458,-0.4631,-0.4593,-0.4623,-0.4624,-0.4637,-0.4637,-0.4737,-0.4637,-0.4637,-0.4637,-0.4636,0,-0.4696,-0.4719,-0.4682,-0.4696,-0.4721,-0.469,-0.4716,-0.4704,-0.4695,-0.4706,-0.4673,-0.4684,-0.4652,-0.466,-0.4642,-0.4665,-0.4665,-0.4657,-0.4653,-0.4661,-0.4662,-0.4664,-0.466,-0.4639,-0.4639,-0.4638,-0.4638,0,-0.4784,-0.476,-0.4781,-0.476,-0.4756,-0.4775,-0.4758,-0.477,-0.4754,-0.4768,-0.477,-0.4745,-0.4753,-0.4729,-0.4734,-0.4722,-0.4755,-0.4742,-0.4758,-0.4755,-0.4787,-0.4785,-0.4893,-0.4906,-0.4797,-0.4798,-0.4799,0,-0.4834,-0.4851,-0.4832,-0.4837,-0.4831,-0.4839,-0.4841,-0.4811,-0.4815,-0.4806,-0.4819,-0.4824,-0.4827,-0.4841,-0.4824,-0.4828,-0.4816,-0.4853,-0.4816,-0.4824,-0.4818,-0.4818,-0.482,-0.4862,-0.4863,-0.4864,-0.4865,0,-0.4927,-0.4914,-0.4918,-0.4917,-0.492,-0.4919,-0.4915,-0.4921,-0.4889,-0.4895,-0.4902,-0.4904,-0.4908,-0.4914,-0.4913,-0.4906,-0.4881,-0.4877,-0.4884,-0.4894,-0.4903,-0.49,-0.478,-0.4875,-0.4874,-0.4873,-0.4873,-0.4872,-0.4998,-0.5011,-0.5,-0.5005,-0.4999,-0.4996,-0.5007,-0.4992,-0.4997,-0.4998,-0.498,-0.4991,-0.4982,-0.4978,-0.4974,-0.4983,-0.4966,-0.4976,-0.4979,-0.4983,-0.4988,-0.49,-0.4982,-0.4982,-0.4982,-0.4982,-0.4981,0,-0.509,-0.508,-0.5086,-0.5081,-0.5085,-0.506,-0.5054,-0.506,-0.507,-0.5063,-0.5066,-0.5075,-0.508,-0.5063,-0.5066,-0.5077,-0.5065,-0.5079,-0.5078,-0.5077,-0.5003,-0.4997,-0.5088,-0.5088,-0.5088,-0.5088,-0.5088,-0.5088,-0.5138,-0.516,-0.5145,-0.5164,-0.5154,-0.5164,-0.5163,-0.5161,-0.5155,-0.5166,-0.517,-0.5159,-0.5148,-0.515,-0.5154,-0.5149,-0.5152,-0.517,-0.5161,-0.5093,-0.5082,-0.5073,-0.5067,-0.5171,-0.5171,-0.5235,-0.5235,-0.5236]},{"header":{"parameterUnit":"m.s-1","parameterCategory":1,"la1":30.2991,"la2":30.254,"lo1":-89.0895,"lo2":-89.0444,"dx":0.0017,"dy":0.0017,"nx":28,"ny":28,"refTime":"2022-12-16T15:00:00:Z","depth":0,"parameterNumber":3,"parameterNumberName":"V-component_of_WINDS"},"data":[0,0,0,0,0,0,0,0,0,0,0,0,0,0,0,0,0,0,0,0,0,0,0,0,0,0,0,0,0,0,0,0,0,0,0,0,0,0,0,0,0,0,0,0,0,0,0,0,0,0,0,0,0,0,0,0,0,0,-2.5075,-2.5075,0,-2.5136,-2.5137,-2.5137,-2.513,-2.5129,-2.5128,-2.5127,-2.5187,-2.519,-2.5192,0,0,0,0,0,0,0,0,0,0,0,0,0,-2.4949,-2.4951,-2.5074,-2.5075,-2.5076,-2.5136,-2.5137,-2.5138,-2.513,-2.5129,-2.5128,-2.5126,-2.5186,-2.5189,-2.5192,0,0,0,0,0,0,0,0,0,0,0,0,0,-2.5006,-2.4952,-2.5074,-2.508,-2.5081,-2.5136,-2.5137,-2.5138,-2.513,-2.5129,-2.5127,-2.5126,-2.5185,-2.5189,-2.5193,-2.5246,0,0,-2.5204,-2.5206,0,0,0,0,0,0,0,0,-2.5003,-2.5011,-2.5078,-2.5079,-2.5081,-2.5124,-2.5115,-2.5174,-2.5131,-2.5111,-2.5127,-2.5125,-2.5167,-2.5172,-2.5187,-2.5249,-2.5251,-2.5205,-2.5207,-2.5209,-2.521,0,0,0,0,0,0,0,-2.4999,-2.5008,-2.5099,-2.5079,-2.5081,-2.5078,-2.5085,-2.5126,-2.5147,-2.5113,-2.5112,-2.512,-2.5167,-2.5183,-2.5188,-2.5252,-2.5205,-2.5208,-2.521,-2.5212,-2.5362,-2.5364,0,0,0,0,0,0,-2.4994,-2.5005,-2.5097,-2.5101,-2.5037,-2.5082,-2.5089,-2.5111,-2.5146,-2.515,-2.5121,-2.5119,-2.5178,-2.5184,-2.519,-2.5256,-2.5209,-2.5212,-2.5214,-2.536,-2.5362,-2.5364,0,0,0,0,0,0,-2.4991,-2.5002,-2.5094,-2.5053,-2.5064,-2.5085,-2.5111,-2.5113,-2.5129,-2.5153,-2.5156,-2.5134,-2.5177,-2.5185,-2.5233,-2.5258,-2.5214,-2.5217,-2.5358,-2.5361,-2.5363,-2.5388,0,0,0,0,0,0,-2.4988,-2.5001,-2.5022,-2.5053,-2.5066,-2.5136,-2.5112,-2.5116,-2.5136,-2.5134,-2.5165,-2.5169,-2.5176,-2.5227,-2.5236,-2.5263,-2.522,-2.5356,-2.5359,-2.5362,-2.5385,-2.5391,-2.5396,0,0,0,0,0,-2.4983,-2.5026,-2.5023,-2.5034,-2.5093,-2.5138,-2.5145,-2.5153,-2.5138,-2.5159,-2.5174,-2.5168,-2.5254,-2.5232,-2.5243,-2.527,-2.5355,-2.5358,-2.5362,-2.5382,-2.539,-2.5396,0,0,0,0,0,0,-2.4996,-2.503,-2.5027,-2.5081,-2.5107,-2.5136,-2.5163,-2.5161,-2.519,-2.5187,-2.5196,-2.5203,-2.5251,-2.5265,-2.524,-2.5324,-2.5302,-2.5308,-2.5314,-2.5321,-2.5326,-2.5323,-2.5223,0,0,0,0,0,-2.5005,-2.5039,-2.5067,-2.5111,-2.5124,-2.5142,-2.5161,-2.5166,-2.5192,-2.5202,-2.5221,-2.5246,-2.5279,-2.53,-2.5332,-2.5386,-2.5393,-2.5411,-2.5416,-2.5421,-2.5426,-2.5458,-2.5466,-2.5377,-2.5377,-2.5377,0,0,-2.5024,-2.5047,-2.5068,-2.5115,-2.5135,-2.517,-2.5151,-2.5188,-2.5214,-2.5208,-2.5255,-2.5269,-2.5298,-2.535,-2.5373,-2.5363,-2.5452,-2.5426,-2.5429,-2.5432,-2.5462,-2.5471,-2.5478,-2.5379,-2.5379,-2.5379,0,0,-2.5077,-2.5097,-2.5138,-2.5159,-2.519,-2.5202,-2.5211,-2.5242,-2.5251,-2.5299,-2.5295,-2.5325,-2.5381,-2.5403,-2.5421,-2.5483,-2.5478,-2.5492,-2.5522,-2.5553,-2.556,-2.5566,-2.559,-2.5598,-2.5498,-2.5498,-2.5498,0,-2.5097,-2.515,-2.5158,-2.5197,-2.5218,-2.5215,-2.5256,-2.5276,-2.5316,-2.533,-2.5318,-2.5389,-2.5408,-2.5465,-2.5481,-2.5495,-2.5507,-2.549,-2.5558,-2.5565,-2.5571,-2.5593,-2.5602,-2.5499,-2.5499,-2.5499,-2.5499,0,-2.5173,-2.521,-2.5239,-2.5279,-2.5303,-2.5343,-2.5357,-2.538,-2.5382,-2.5395,-2.5443,-2.5466,-2.5503,-2.5516,-2.5518,-2.5574,-2.5567,-2.5556,-2.5535,-2.5581,-2.5602,-2.5611,-2.5502,-2.5501,-2.5501,-2.55,0,0,-2.5236,-2.5281,-2.5292,-2.5311,-2.5346,-2.5374,-2.5413,-2.5451,-2.5471,-2.5498,-2.5532,-2.558,-2.5571,-2.5591,-2.5595,-2.5622,-2.5671,-2.5608,-2.5609,-2.562,-2.5736,-2.5746,-2.5755,-2.5668,-2.567,-2.5671,-2.5735,0,-2.5294,-2.5365,-2.5375,-2.5438,-2.5473,-2.547,-2.5505,-2.553,-2.5542,-2.5573,-2.5587,-2.5621,-2.5606,-2.5618,-2.5644,-2.566,-2.5695,-2.5655,-2.57,-2.5702,-2.5695,-2.5766,-2.5776,-2.5835,-2.5743,-2.5744,-2.5745,0,-2.5371,-2.5403,-2.547,-2.5501,-2.5516,-2.5547,-2.5582,-2.5612,-2.564,-2.5647,-2.5671,-2.5672,-2.5713,-2.5688,-2.5745,-2.5717,-2.5736,-2.5746,-2.5749,-2.5755,-2.5727,-2.5775,-2.5854,-2.5863,-2.5758,-2.5757,-2.5756,0,-2.5413,-2.5471,-2.5519,-2.5535,-2.5573,-2.5595,-2.5611,-2.5638,-2.566,-2.569,-2.5705,-2.5739,-2.5758,-2.5784,-2.5794,-2.5775,-2.5851,-2.5827,-2.5859,-2.5858,-2.5876,-2.5875,-2.596,-2.5885,-2.5885,-2.5885,-2.5885,0,-2.5477,-2.5518,-2.5539,-2.5569,-2.5615,-2.5625,-2.567,-2.5686,-2.571,-2.5742,-2.5741,-2.5772,-2.5783,-2.5815,-2.5823,-2.5869,-2.5877,-2.5884,-2.5886,-2.5886,-2.5885,-2.5899,-2.5896,-2.5887,-2.5887,-2.5886,-2.5886,0,-2.5532,-2.5547,-2.56,-2.5631,-2.564,-2.5673,-2.57,-2.5729,-2.5741,-2.5782,-2.5792,-2.5812,-2.585,-2.5862,-2.5907,-2.5913,-2.5967,-2.5965,-2.5959,-2.5959,-2.5991,-2.5989,-2.6089,-2.6103,-2.6018,-2.6019,-2.6019,0,-2.5573,-2.5605,-2.5641,-2.5663,-2.5681,-2.5716,-2.5739,-2.575,-2.5774,-2.5809,-2.5834,-2.5872,-2.5903,-2.5963,-2.5981,-2.6016,-2.6015,-2.6048,-2.602,-2.6019,-2.6018,-2.6016,-2.602,-2.6053,-2.6054,-2.6055,-2.6056,0,-2.5644,-2.5651,-2.5685,-2.5722,-2.5749,-2.5779,-2.5807,-2.5825,-2.5839,-2.5866,-2.5906,-2.593,-2.5977,-2.6015,-2.6051,-2.6067,-2.6064,-2.6064,-2.6074,-2.6074,-2.607,-2.6074,-2.5975,-2.6062,-2.6061,-2.6061,-2.6061,-2.606,-2.5695,-2.5724,-2.5754,-2.5792,-2.5815,-2.5841,-2.5871,-2.5887,-2.5921,-2.5961,-2.5965,-2.6008,-2.6035,-2.6084,-2.6102,-2.6135,-2.6126,-2.6139,-2.6143,-2.6146,-2.615,-2.6063,-2.6141,-2.6141,-2.6141,-2.6141,-2.6141,0,-2.5768,-2.5788,-2.5823,-2.5863,-2.5893,-2.5888,-2.5919,-2.5945,-2.5983,-2.601,-2.6041,-2.6087,-2.6124,-2.6144,-2.6181,-2.6204,-2.6204,-2.6214,-2.6213,-2.6217,-2.6155,-2.6144,-2.6213,-2.6213,-2.6213,-2.6213,-2.6213,-2.6213,-2.581,-2.586,-2.587,-2.5931,-2.595,-2.5993,-2.6011,-2.6036,-2.6058,-2.6109,-2.6141,-2.6154,-2.6179,-2.6218,-2.6251,-2.6257,-2.6271,-2.6282,-2.6286,-2.6228,-2.6221,-2.6214,-2.6204,-2.6284,-2.6285,-2.6346,-2.6346,-2.6347]}]]